Find SBIRS GEO-5

NORAD ID: 48618 Int'l Des: 2021-042 Owner: USSF Country: US operational
HEOCIRCULARGSO

Live Position

Loading 3D Globe...

About SBIRS GEO-5

Description loading...

Upcoming Passes

Passes for default location (London). Set your location on the main map for personalized predictions.

Altitude History

Loading altitude history...

Two-Line Element Set

1 48618U 21042A 26111.02240035 -.00000275 00000-0 00000-0 0 9998
2 48618 5.1774 328.6944 0001192 54.9621 287.3024 1.00270973 18193
Epoch: Apr 21, 2026 • Age: 25 hours

Current Status

Altitude 35783.2 km
Velocity 3.07 km/s
Sub-Earth Point 0.42°N, 93.76°E
Launch Date May 18, 2021
Age 4.9 years
Type military

Technical Details

Classification Payload
Mass 4500.00 kg
Dry Mass 2500.00 kg
Total Mass 4500.00 kg
Length 6.00 m
Diameter 2.50 m
Span 25.00 m
Shape Box + 2 Pan
Manufacturer LMSS
Bus Type A2100
Phase Status In Orbit
Owner/State USSF/US

Most Searched